Date String (YYYY-MM-DD hh:mm:ss) UTC,Instrument flags,absolute air pressure of the measurement (hPa),sample flow rate (lpm),inlet stack bypass flow (lpm),air temperature of the measurement (°C),ambient temperature measured by the external sensor (°C),aerosol sample conditioner tube jacket temperature (°C),OPC LED temperature (°C),internal box temperature (°C),relative humidity of the measurement (%),span deviation,mass concentration of particles derived from Lorenz-Mie calculation of OPC scattering (μg/m³),mass concentration of particles derived from Lorenz-Mie calculation of OPC scattering (μg/m³),mass concentration of particles derived from Lorenz-Mie calculation of OPC scattering (μg/m³)
DateTimeUTC,F1_M11,P_M11,Q1_M11,Q2_M11,T1_M11,T2_M11,T3_M11,T4_M11,T5_M11,U1_M11,ZSPAN_M11,X2_M11,X0_M11,X1_M11
2023-09-15 16:00:00,SystemResetWarning,0838.0,4.99,000.00,028.6,026.2,000.0,037.1,030.0,25.3,0000.0,0004.28,0008.86,0003.77
2023-09-15 16:01:00,SystemResetWarning,0838.0,4.99,000.00,028.6,026.4,000.0,037.1,030.1,23.8,0000.0,0004.30,0009.09,0003.77
2023-09-15 16:02:00,SystemResetWarning,0837.9,5.00,000.00,028.6,026.6,000.0,037.0,030.1,23.9,0000.0,0004.26,0009.14,0003.76
2023-09-15 16:03:00,SystemResetWarning,0837.9,5.00,000.00,028.6,026.7,000.0,037.0,030.2,24.1,0000.0,0004.28,0009.26,0003.76
2023-09-15 16:04:00,SystemResetWarning,0838.0,5.00,000.00,028.6,026.9,000.0,037.0,030.2,23.8,0000.0,0004.24,0009.09,0003.76
2023-09-15 16:05:00,SystemResetWarning,0838.0,5.00,000.00,028.6,027.0,000.0,037.0,030.2,23.9,0000.0,0004.22,0008.98,0003.76
2023-09-15 16:06:00,SystemResetWarning,0838.0,5.00,000.00,028.6,027.1,000.0,037.0,030.3,24.0,0000.0,0004.24,0008.96,0003.74
2023-09-15 16:07:00,SystemResetWarning,0838.0,5.00,000.00,028.6,027.1,000.0,037.0,030.3,24.4,0000.0,0004.26,0008.84,0003.74
2023-09-15 16:08:00,SystemResetWarning,0838.0,5.00,000.00,028.7,027.2,000.0,037.0,030.3,24.7,0000.0,0004.28,0008.93,0003.73
2023-09-15 16:09:00,SystemResetWarning,0838.1,5.00,000.00,028.7,027.2,000.0,037.0,030.3,24.6,0000.0,0004.24,0008.75,0003.72
2023-09-15 16:10:00,SystemResetWarning,0838.1,5.00,000.00,028.7,027.3,000.0,037.0,030.4,24.1,0000.0,0004.21,0008.48,0003.71
2023-09-15 16:11:00,SystemResetWarning,0838.1,5.01,000.00,028.7,027.3,000.0,037.0,030.4,24.3,0000.0,0004.22,0007.78,0003.69
2023-09-15 16:12:00,SystemResetWarning,0838.2,5.00,000.00,028.7,027.3,000.0,037.0,030.4,24.9,0000.0,0004.23,0007.68,0003.68
2023-09-15 16:13:00,SystemResetWarning,0838.2,5.00,000.00,028.7,027.4,000.0,037.0,030.4,24.5,0000.0,0004.26,0007.62,0003.67
2023-09-15 16:14:00,SystemResetWarning,0838.2,5.00,000.00,028.8,027.4,000.0,037.0,030.4,24.5,0000.0,0004.25,0007.47,0003.66
2023-09-15 16:15:00,SystemResetWarning,0838.2,5.00,000.00,028.8,027.4,000.0,037.0,030.4,24.7,0000.0,0004.26,0007.48,0003.65
2023-09-15 16:16:00,SystemResetWarning,0838.2,5.00,000.00,028.8,027.5,000.0,037.1,030.5,24.2,0000.0,0004.26,0007.50,0003.64
2023-09-15 16:17:00,SystemResetWarning,0838.2,5.00,000.00,028.8,027.5,000.0,037.1,030.5,23.8,0000.0,0004.25,0008.01,0003.63
2023-09-15 16:18:00,SystemResetWarning,0838.2,5.00,000.00,028.8,027.5,000.0,037.1,030.5,23.7,0000.0,0004.22,0008.55,0003.63
2023-09-15 16:19:00,SystemResetWarning,0838.2,5.00,000.00,028.9,027.5,000.0,037.1,030.5,23.5,0000.0,0004.20,0008.49,0003.61
2023-09-15 16:20:00,SystemResetWarning,0838.1,5.00,000.00,028.9,027.5,000.0,037.1,030.5,23.6,0000.0,0004.19,0008.46,0003.61
2023-09-15 16:21:00,SystemResetWarning,0838.2,5.00,000.00,028.9,027.6,000.0,037.1,030.6,23.8,0000.0,0004.18,0008.39,0003.61
2023-09-15 16:22:00,SystemResetWarning,0838.2,5.00,000.00,028.9,027.6,000.0,037.1,030.6,24.0,0000.0,0004.15,0008.48,0003.61
2023-09-15 16:23:00,SystemResetWarning,0838.2,5.01,000.00,028.9,027.6,000.0,037.1,030.6,24.4,0000.0,0004.12,0008.39,0003.61
2023-09-15 16:24:00,SystemResetWarning,0838.2,5.00,000.00,028.9,027.6,000.0,037.2,030.6,25.0,0000.0,0004.11,0008.39,0003.60
2023-09-15 16:25:00,SystemResetWarning,0838.2,5.00,000.00,029.0,027.6,000.0,037.2,030.6,25.2,0000.0,0004.14,0008.49,0003.60
2023-09-15 16:26:00,SystemResetWarning,0838.2,5.00,000.00,029.0,027.6,000.0,037.2,030.6,25.4,0000.0,0004.14,0008.51,0003.61
2023-09-15 16:27:00,SystemResetWarning,0838.2,5.00,000.00,029.0,027.6,000.0,037.2,030.6,25.6,0000.0,0004.17,0008.64,0003.61
2023-09-15 16:28:00,SystemResetWarning,0838.2,5.00,000.00,029.0,027.6,000.0,037.2,030.7,25.2,0000.0,0004.21,0008.23,0003.61
2023-09-15 16:29:00,SystemResetWarning,0838.2,5.00,000.00,029.0,027.7,000.0,037.2,030.7,24.9,0000.0,0004.23,0007.63,0003.61
2023-09-15 16:30:00,SystemResetWarning,0838.2,5.00,000.00,029.0,027.7,000.0,037.2,030.7,24.7,0000.0,0004.22,0007.56,0003.62
2023-09-15 16:31:00,SystemResetWarning,0838.2,5.00,000.00,029.0,027.7,000.0,037.3,030.7,24.5,0000.0,0004.23,0007.61,0003.63
2023-09-15 16:32:00,SystemResetWarning,0838.2,5.00,000.00,029.0,027.7,000.0,037.3,030.7,24.6,0000.0,0004.27,0007.95,0003.64
2023-09-15 16:33:00,SystemResetWarning,0838.2,5.00,000.00,029.0,027.7,000.0,037.3,030.7,24.8,0000.0,0004.30,0008.05,0003.65
2023-09-15 16:34:00,SystemResetWarning,0838.2,5.00,000.00,029.1,027.7,000.0,037.3,030.7,25.1,0000.0,0004.38,0009.14,0003.67
2023-09-15 16:35:00,SystemResetWarning,0838.2,5.00,000.00,029.1,027.7,000.0,037.3,030.8,24.6,0000.0,0004.39,0009.54,0003.69
2023-09-15 16:36:00,SystemResetWarning,0838.2,5.00,000.00,029.1,027.7,000.0,037.3,030.8,24.8,0000.0,0004.37,0009.44,0003.69
2023-09-15 16:37:00,SystemResetWarning,0838.2,4.99,000.00,029.1,027.7,000.0,037.3,030.8,24.1,0000.0,0004.37,0009.50,0003.70
2023-09-15 16:38:00,SystemResetWarning,0838.2,5.00,000.00,029.1,027.7,000.0,037.3,030.8,24.1,0000.0,0004.36,0009.75,0003.72
2023-09-15 16:39:00,SystemResetWarning,0838.2,5.00,000.00,029.1,026.3,000.0,037.3,030.3,24.5,0000.0,0004.34,0009.74,0003.72
2023-09-15 16:40:00,SystemResetWarning,0838.2,5.01,000.00,028.8,024.5,000.0,037.2,029.6,24.7,0000.0,0004.33,0009.69,0003.73
2023-09-15 16:41:00,SystemResetWarning,0838.2,5.02,000.00,028.7,023.8,000.0,037.1,029.5,24.8,0000.0,0004.30,0009.72,0003.72
2023-09-15 16:42:00,SystemResetWarning,0838.2,5.00,000.00,028.5,023.9,000.0,037.1,029.4,25.1,0000.0,0004.33,0010.53,0003.73
2023-09-15 16:43:00,SystemResetWarning,0838.2,4.99,000.00,028.4,024.2,000.0,037.0,029.5,24.9,0000.0,0004.32,0010.44,0003.72
2023-09-15 16:44:00,SystemResetWarning,0838.2,5.00,000.00,028.3,024.7,000.0,037.0,029.6,25.3,0000.0,0004.34,0010.35,0003.71
2023-09-15 16:45:00,SystemResetWarning,0838.2,5.00,000.00,028.3,025.1,000.0,036.9,029.6,25.2,0000.0,0004.30,0009.59,0003.70
2023-09-15 16:46:00,SystemResetWarning,0838.2,5.00,000.00,028.3,025.4,000.0,036.9,029.7,25.5,0000.0,0004.28,0008.88,0003.70
2023-09-15 16:47:00,SystemResetWarning,0838.2,4.99,000.00,028.3,025.8,000.0,036.9,029.7,25.6,0000.0,0004.27,0008.87,0003.70
2023-09-15 16:48:00,SystemResetWarning,0838.2,5.00,000.00,028.3,026.0,000.0,036.8,029.8,25.3,0000.0,0004.27,0008.84,0003.70
2023-09-15 16:49:00,SystemResetWarning,0838.2,5.00,000.00,028.3,026.2,000.0,036.8,029.8,25.3,0000.0,0004.29,0008.53,0003.69
2023-09-15 16:50:00,SystemResetWarning,0838.2,5.01,000.00,028.3,026.4,000.0,036.8,029.9,25.1,0000.0,0004.28,0008.50,0003.69
2023-09-15 16:51:00,SystemResetWarning,0838.2,5.00,000.00,028.3,026.5,000.0,036.8,029.9,25.0,0000.0,0004.30,0008.59,0003.69
2023-09-15 16:52:00,SystemResetWarning,0838.2,5.00,000.00,028.3,026.7,000.0,036.8,029.9,25.3,0000.0,0004.35,0008.66,0003.70
2023-09-15 16:53:00,SystemResetWarning,0838.2,5.00,000.00,028.4,026.8,000.0,036.8,030.0,26.0,0000.0,0004.34,0007.89,0003.71
2023-09-15 16:54:00,SystemResetWarning,0838.1,5.00,000.00,028.4,026.8,000.0,036.8,030.0,25.2,0000.0,0004.37,0007.98,0003.71
2023-09-15 16:55:00,SystemResetWarning,0838.2,5.00,000.00,028.4,026.9,000.0,036.7,030.0,24.1,0000.0,0004.38,0007.90,0003.72
2023-09-15 16:56:00,SystemResetWarning,0838.2,5.00,000.00,028.4,027.0,000.0,036.8,030.1,24.3,0000.0,0004.40,0007.95,0003.72
2023-09-15 16:57:00,SystemResetWarning,0838.2,5.00,000.00,028.4,027.0,000.0,036.8,030.1,24.7,0000.0,0004.40,0008.18,0003.72
2023-09-15 16:58:00,SystemResetWarning,0838.1,5.00,000.00,028.4,027.1,000.0,036.8,030.1,24.9,0000.0,0004.44,0008.57,0003.71
2023-09-15 16:59:00,SystemResetWarning,0838.2,5.00,000.00,028.5,027.1,000.0,036.8,030.1,24.5,0000.0,0004.47,0008.77,0003.71
